Perth, Australia

8:41 PM AWST on January 19, 2018 (GMT +0800)
Perth International

Weather History for YPPH - December, 2013

Change the Weather History Date:

Friday, December 27, 2013

  Actual Average Record
Temperature  
Mean Temperature 74 °F -  
Max Temperature 84 °F 88 °F 104 °F (1999)
Min Temperature 65 °F 63 °F 55 °F (2008)
Cooling Degree Days 10    
Growing Degree Days 24 (Base 50)    
Moisture  
Dew Point 59 °F    
Average Humidity 60    
Maximum Humidity 83    
Minimum Humidity 32    
Precipitation  
Precipitation 0.00 in 0.01 in - ()
Sea Level Pressure  
Sea Level Pressure 29.90 in    
Wind  
Wind Speed 11 mph ()    
Max Wind Speed 21 mph    
Max Gust Speed -    
Visibility 8.0 miles    
Events      
Averages and records for this station are not official NWS values.
T = Trace of Precipitation, MM = Missing Value Source: Averaged Metar Reports

Daily Weather History Graph

Daily Weather History Graph

Search for Another Location

Airport or City:

Trip Planner

Search our weather history database for the weather conditions in past years. The results will help you decide how hot, cold, wet, or windy it might be!

Date:

Astronomy

Dec. 27, 2013 Rise Set
Actual Time 5:10 AM AWST 7:24 PM AWST
Civil Twilight 4:42 AM AWST 7:52 PM AWST
Nautical Twilight 4:07 AM AWST 8:26 PM AWST
Astronomical Twilight 3:30 AM AWST 9:04 PM AWST
Moon 12:39 AM AWST (12/27) 1:52 PM AWST (12/27)
Length of Visible Light 15h 10m
Length of Day
14h 13m
Waning Crescent, 34% of the Moon is Illuminated
Dec 27
Waning Crescent
Jan 1
New
Jan 8
First Quarter
Jan 16
Full
Jan 24
Last Quarter

Hourly Weather History & Observations

Time (AWST) Temp. Heat Index Dew Point Humidity Pressure Visibility Wind Dir Wind Speed Gust Speed Precip Events Conditions
12:00 AM 67 °F - 61 °F 75% 29.85 in 12 mi SW 9.2 mph - -   Partly Cloudy
12:00 AM 68.0 °F - 60.8 °F 78% 29.83 in 6.2 mi SW 9.2 mph - N/A   Mostly Cloudy
12:30 AM 66.2 °F - 60.8 °F 83% 29.83 in 6.2 mi SW 6.9 mph - N/A   Mostly Cloudy
1:00 AM 68.0 °F - 60.8 °F 78% 29.83 in 6.2 mi SW 8.1 mph - N/A   Mostly Cloudy
1:30 AM 68.0 °F - 60.8 °F 78% 29.83 in 6.2 mi SW 9.2 mph - N/A   Mostly Cloudy
2:00 AM 67 °F - 60 °F 73% 29.83 in - SSW 6.9 mph - -  
2:00 AM 66.2 °F - 60.8 °F 83% 29.83 in 6.2 mi SSW 6.9 mph - N/A   Mostly Cloudy
2:30 AM 68.0 °F - 60.8 °F 78% 29.83 in 6.2 mi SSW 9.2 mph - N/A   Mostly Cloudy
3:00 AM 67 °F - 61 °F 74% 29.85 in 12 mi SSW 11.5 mph - -   Partly Cloudy
3:00 AM 68.0 °F - 60.8 °F 78% 29.83 in 6.2 mi SSW 11.5 mph - N/A   Mostly Cloudy
3:30 AM 66.2 °F - 60.8 °F 83% 29.83 in 6.2 mi South 13.8 mph - N/A   Scattered Clouds
4:00 AM 66.2 °F - 60.8 °F 83% 29.83 in 6.2 mi South 12.7 mph - N/A   Scattered Clouds
4:30 AM 66.2 °F - 59.0 °F 78% 29.83 in 6.2 mi South 13.8 mph - N/A   Mostly Cloudy
5:00 AM 66 °F - 58 °F 69% 29.86 in - South 12.7 mph - -  
5:00 AM 66.2 °F - 59.0 °F 78% 29.86 in 6.2 mi South 12.7 mph - N/A   Mostly Cloudy
5:30 AM 66.2 °F - 59.0 °F 78% 29.86 in 6.2 mi South 10.4 mph - N/A   Mostly Cloudy
6:00 AM 66 °F - 58 °F 69% 29.88 in 12 mi South 10.4 mph - -   Partly Cloudy
6:00 AM 66.2 °F - 59.0 °F 78% 29.86 in 6.2 mi South 10.4 mph - N/A   Scattered Clouds
6:30 AM 68.0 °F - 59.0 °F 73% 29.89 in 6.2 mi South 9.2 mph - N/A   Partly Cloudy
7:00 AM 69.8 °F - 59.0 °F 68% 29.89 in 6.2 mi South 10.4 mph - N/A   Partly Cloudy
7:30 AM 71.6 °F - 59.0 °F 64% 29.89 in 6.2 mi SSW 9.2 mph - N/A   Partly Cloudy
8:00 AM 73 °F - 59 °F 52% 29.91 in - SSW 12.7 mph - -  
8:00 AM 73.4 °F - 59.0 °F 61% 29.92 in 6.2 mi SSW 12.7 mph - N/A   Partly Cloudy
8:30 AM 75.2 °F - 57.2 °F 53% 29.92 in 6.2 mi SSW 16.1 mph - N/A   Mostly Cloudy
9:00 AM 74 °F - 58 °F 48% 29.92 in 16 mi SW 10.4 mph - -   Partly Cloudy
9:00 AM 73.4 °F - 59.0 °F 61% 29.92 in 6.2 mi SW 10.4 mph - N/A   Mostly Cloudy
9:30 AM 75.2 °F - 60.8 °F 61% 29.92 in 6.2 mi SSW 11.5 mph - N/A   Mostly Cloudy
10:00 AM 73.4 °F - 60.8 °F 65% 29.92 in 6.2 mi WSW 11.5 mph - N/A   Mostly Cloudy
10:30 AM 77.0 °F - 60.8 °F 57% 29.92 in 6.2 mi SSW 12.7 mph - N/A   Mostly Cloudy
11:00 AM 77 °F - 60 °F 45% 29.92 in - SSW 10.4 mph - -  
11:00 AM 77.0 °F - 59.0 °F 54% 29.92 in 6.2 mi SSW 10.4 mph - N/A   Mostly Cloudy
11:30 AM 77.0 °F - 59.0 °F 54% 29.92 in 6.2 mi SW 10.4 mph - N/A   Mostly Cloudy
12:00 PM 78 °F - 59 °F 42% 29.91 in 19 mi SW 10.4 mph - -   Partly Cloudy
12:00 PM 77.0 °F - 59.0 °F 54% 29.92 in 6.2 mi SSW 13.8 mph - N/A   Mostly Cloudy
12:30 PM 80.6 °F 81.1 °F 59.0 °F 48% 29.89 in 6.2 mi SSW 10.4 mph - N/A   Mostly Cloudy
1:00 PM 80.6 °F 81.5 °F 60.8 °F 51% 29.89 in 6.2 mi West 11.5 mph - N/A   Scattered Clouds
1:30 PM 82.4 °F 82.5 °F 59.0 °F 45% 29.89 in 6.2 mi SW 13.8 mph - N/A   Scattered Clouds
2:00 PM 83 °F - 58 °F 32% 29.90 in - SW 17.3 mph - -  
2:00 PM 82.4 °F 82.5 °F 59.0 °F 45% 29.89 in 6.2 mi SW 17.3 mph - N/A   Partly Cloudy
2:30 PM 84.2 °F 83.5 °F 57.2 °F 40% 29.89 in 6.2 mi WSW 19.6 mph - N/A   Partly Cloudy
3:00 PM 82 °F - 57 °F 32% 29.89 in 19 mi WSW 20.7 mph - -   Partly Cloudy
3:00 PM 82.4 °F 82.0 °F 57.2 °F 42% 29.89 in 6.2 mi WSW 20.7 mph - N/A   Partly Cloudy
3:30 PM 82.4 °F 82.0 °F 57.2 °F 42% 29.89 in 6.2 mi SW 19.6 mph - N/A   Partly Cloudy
4:00 PM 80.6 °F 80.8 °F 57.2 °F 45% 29.89 in 6.2 mi SW 20.7 mph - N/A   Partly Cloudy
4:30 PM 78.8 °F - 59.0 °F 51% 29.89 in 6.2 mi SW 19.6 mph - N/A   Partly Cloudy
5:00 PM 79 °F - 59 °F 40% 29.91 in - SW 16.1 mph - -  
5:00 PM 78.8 °F - 59.0 °F 51% 29.89 in 6.2 mi SW 16.1 mph - N/A   Partly Cloudy
5:30 PM 78.8 °F - 59.0 °F 51% 29.89 in - SW 13.8 mph - N/A   Clear
6:00 PM 78 °F - 60 °F 44% 29.92 in 19 mi WSW 13.8 mph - -   Partly Cloudy
6:00 PM 78.8 °F - 60.8 °F 54% 29.92 in - WSW 13.8 mph - N/A   Clear
6:30 PM 77.0 °F - 59.0 °F 54% 29.92 in - SW 15.0 mph - N/A   Clear
7:00 PM 75.2 °F - 59.0 °F 57% 29.92 in - SW 16.1 mph - N/A   Clear
7:30 PM 73.4 °F - 59.0 °F 61% 29.95 in - SW 15.0 mph - N/A   Clear
8:00 PM 72 °F - 59 °F 55% 29.96 in - SW 15.0 mph - -  
8:00 PM 71.6 °F - 59.0 °F 64% 29.95 in - SW 15.0 mph - N/A   Clear
8:30 PM 71.6 °F - 59.0 °F 64% 29.95 in - SSW 12.7 mph - N/A   Clear
9:00 PM 71 °F - 58 °F 55% 29.97 in 19 mi SSW 12.7 mph - -   Partly Cloudy
9:00 PM 71.6 °F - 59.0 °F 64% 29.95 in - SSW 12.7 mph - N/A   Clear
9:30 PM 71.6 °F - 55.4 °F 57% 29.98 in - SSW 11.5 mph - N/A   Clear
10:00 PM 69.8 °F - 53.6 °F 56% 29.98 in - SSW 17.3 mph - N/A   Clear
10:30 PM 68.0 °F - 53.6 °F 60% 29.98 in - South 18.4 mph - N/A   Clear
11:00 PM 68 °F - 54 °F 51% 29.98 in - South 16.1 mph - -  
11:00 PM 68.0 °F - 53.6 °F 60% 29.98 in - South 16.1 mph - N/A   Clear
11:30 PM 66.2 °F - 53.6 °F 64% 29.98 in - South 13.8 mph - N/A   Clear